Regional Weather Roundup
Issued by NWS

Home | Current Version | Previous Version | Text Only | Print | Product List | Glossary On
Versions: 1 2 3 4 5 6 7 8 9 10 11 12 13 14 15 16 17 18 19 20 21 22 23 24 25 26 27 28 29 30 31 32 33 34 35 36 37 38 39 40 41 42 43 44 45 46 47 48 49 50
000
ASHW40 PHFO 272310
RWRHI

WEATHER ROUNDUP FOR HAWAII
NATIONAL WEATHER SERVICE HONOLULU HI
100 PM HST THU NOV 27 2014

THIS IS AN AUTOMATED REPORT THAT HAS NOT BEEN QUALITY CONTROLLED.

NOTE..."FAIR" INDICATES FEW OR NO CLOUDS BELOW 12,000 FEET WITH NO
SIGNIFICANT WEATHER AND/OR OBSTRUCTIONS TO VISIBILITY.

* - THESE SITES REPORT LIMITED FIELDS

HIZ001>004-280000-
KAUAI-NIIHAU-

CITY           SKY/WX    TMP DP  RH WIND       PRES   REMARKS
LIHUE APT      MOSUNNY   80  59  48 NE18G26   30.06F
PORT ALLEN*      N/A     81 N/A N/A NE21G33     N/A
POIPU*           N/A     81 N/A N/A NE12G23     N/A
PRINCEVILLE*     N/A     75 N/A N/A MISG        N/A
KOKOLE POINT*  NOT AVBL
MOLOAA DAIRY*  NOT AVBL
WAIMEA HTS*    NOT AVBL
PUU OPAE*      NOT AVBL
PUU LUA*       NOT AVBL
MAKAHA RIDGE*  NOT AVBL
$$

HIZ005>011-280000-
OAHU-

CITY           SKY/WX    TMP DP  RH WIND       PRES   REMARKS
HONOLULU       MOSUNNY   81  58  45 NE22G30   30.02F
KALAELOA       SUNNY     80  57  45 E10G23    30.03F
KANEOHE MCB    MOSUNNY   79  60  52 NE14G23   30.05F
WHEELER FIELD  FAIR      76  60  57 NE15G22   30.05F
BELLOWS*       NOT AVBL
KAHUKU*        NOT AVBL
WHEELER*       NOT AVBL
WAIANAE HARBOR NOT AVBL
DILLINGHAM*      N/A     70  48  46 NE12G20     N/A
KAHUKU TRN*      N/A     70  52  52 E14G28      N/A
KAWAILOA*        N/A     72  59  64 NE12G26     N/A
KII*             N/A    N/A N/A N/A E22         N/A
MAKUA RANGE*     N/A     81  59  47 E10G28      N/A
OAHU FOREST NW NOT AVBL
SCHOFIELD BRK*   N/A     66  52  59 MISG        N/A
SCHOFIELD S*   NOT AVBL
WAIANAE VLY*   NOT AVBL
KUAOKALA*      NOT AVBL
HONOULIUULI*   NOT AVBL
MOKUOLOE IS*     N/A    N/A N/A N/A MISG        N/A
PALEHUA*       NOT AVBL
WAIAWA PHB*    NOT AVBL
$$

HIZ012>013-280000-
MOLOKAI-

CITY           SKY/WX    TMP DP  RH WIND       PRES   REMARKS
MOLOKAI AIRPT  MOSUNNY   78  60  53 NE17G26   30.03F
KALAUPAPA      NOT AVBL
MAKAPULAPAI*   NOT AVBL
MOLOKAI 1*     NOT AVBL
PUU ALII*      NOT AVBL
$$

HIZ016-280000-
KAHOOLAWE-

CITY           SKY/WX    TMP DP  RH WIND       PRES   REMARKS
KAHOOLAWE*     NOT AVBL
HAKIOAWA*      NOT AVBL
HONOKANAIA*      N/A     81  62  52 N17G39      N/A
KANELOA*         N/A     79  64  61 NE17G29   29.23F
KEALIALALO*    NOT AVBL
LUA MAKIKA*    NOT AVBL
$$

HIZ014>015-280000-
LANAI-

CITY           SKY/WX    TMP DP  RH WIND       PRES   REMARKS
LANAI CITY     MOSUNNY   75  61  60 E17       30.02F
LANAI 1*       NOT AVBL
$$

HIZ017>028-280000-
MAUI-

CITY           SKY/WX    TMP DP  RH WIND       PRES   REMARKS
KAHULUI        PTSUNNY   79  62  56 NE23G29   30.03F
KAPALUA-W MAUI PTSUNNY   77  63  61 NE21G31   30.02
HANA AIRPORT   CLOUDY    75  63  64 NE9       30.07S
HANA*          NOT AVBL
HALEAKALA SUMM   N/A     57  21  24 E9          N/A
MAALAEA BAY*   NOT AVBL
HALEAKALA*     NOT AVBL
KAUPO GAP*     NOT AVBL
KULA 1*          N/A     66  53  63 NW2G9       N/A
$$

HIZ023>026-280000-
BIG ISLAND OF HAWAII COAST AND LOWER SLOPES-

CITY           SKY/WX    TMP DP  RH WIND       PRES   REMARKS
KAILUA KONA    SUNNY     85  66  53 S10       29.93F
HILO           LGT RAIN  73  68  84 NE10      30.03F FOG
HONOKAA*       NOT AVBL
KAWAIHAE MWT*  NOT AVBL
KAWAIHAE*      NOT AVBL
SOUTH POINT*   NOT AVBL
UPOLU AIRPORT* NOT AVBL
KAMUELA*       LGT RAIN  66  63  88 NE20      30.08F
HAKALAU*         N/A     61  54  78 NE6G12      N/A
KALOKO-HONOKO* NOT AVBL
PALI 2*          N/A     75  61  60 N20G31      N/A
KEALAKOMO*       N/A     84  63  48 NE25G35     N/A
KAUPULEHU*     NOT AVBL
KAPAPALA*        N/A     83  57  40 E6G16       N/A
LOWER KAHUKU*  NOT AVBL
PUHE CS*       NOT AVBL
PUHO CS*       NOT AVBL
PTA KEAMUKU*     N/A     70  59  68 NE8G35      N/A
WAIKOLOA*      NOT AVBL
$$

HIZ027>028-280000-
BIG ISLAND OF HAWAII INTERIOR AND SUMMMITS-

CITY           SKY/WX    TMP DP  RH WIND       PRES   REMARKS
BRADSHAW FIELD SUNNY     68  52  57 W7        30.29F
MK VISITOR CEN NOT AVBL
MAUNA KEA*       N/A     46  16  29 SE6G18      N/A
MAUNA LOA*     NOT AVBL
MAUNA LOA 1*   NOT AVBL
PTA KIPUKA*      N/A    N/A N/A N/A NW6G13      N/A
PTA RANGE 17*    N/A     68  54  60 W7G16       N/A
PTA WEST*        N/A     72  55  56 W8G21       N/A
NENE CABIN*    NOT AVBL
AHUMOA*        NOT AVBL
PTA PORTABLE*  NOT AVBL
PUU MALI*      NOT AVBL
$$

HIC003-280000-
NORTHWEST ISLANDS-

CITY           SKY/WX    TMP DP  RH WIND       PRES   REMARKS
MIDWAY ISLAND  RAIN      72  70  94 S17       30.07F FOG
MIDWAY NOS*    NOT AVBL
FRENCH FRIGATE NOT AVBL
$$

PHZ110>124-180-280000-
BUOY REPORTS

STATION/POSITION TIME  TEMP    WIND        PRES    WAVE   SWELL
                       AIR SEA DIR/SP/G            HT/PER HT/DIR
                 (UTC) (F)     (DEG/KT/KT) (MB)    (FT/S) (FT/D)
BUOY 51001       NOT AVBL
BUOY 51101       2300   74 77   50/ 17/ 19 1019.6F  10/14   8/350
BUOY 51100       2300   73 78   50/ 16/ 19 1017.6F
BUOY 51003       2200   78 81   50/ 17/ 19 1015.8F   9/ 8   7
BUOY 51004       2159   79 80   80/ 17/ 19 1012.6   10/13   8/360
BARBERS PT BUOY  NOT AVBL
WAIMEA BAY BUOY  2300      79                N/A    10/14   7/ 10
KAILUA BAY BUOY  2200      79                N/A    10/10   5/ 20
LANAI BUOY       2300      79                N/A     3/14   2/270
BARBERS PT 2     2300      78                N/A     4/11   2/290
PAUWELA MAUI     2200      79                N/A    10/12   7/350
HILO             2200      79                N/A    10/10   7/ 50
KANEOHE BAY BUOY 2200      78                N/A     8/12   5/ 10
HANALEI KAUAI    NOT AVBL
KAHULUI HARBOR   2300   76 77   30/ 13/ 19 1017.0F
HONOLULU HARBOR  2300   77      90/  6/ 16 1016.9F
KILO NALU        NOT AVBL
HILO HARBOR      2300   72      40/ 10/ 15 1016.4S
MOKUOLOE         2300      76              1017.9F
NAWILIWILI       2300      78                N/A
WHOTS BUOY       NOT AVBL
BUOY 51028       NOT AVBL
$$

......................KEY........................................
  SKY/WX - SKY CONDITIONS/PRESENT WEATHER
  TMP    - TEMPERATURE IN FAHRENHEIT
  DWPT   - DEWPOINT IN FAHRENHEIT
  RH     - RELATIVE HUMIDITY IN PERCENT
  WIND   - DIRECTION AND SPEED /MPH FOR ISLANDS...KTS FOR BUOYS/
  PRES   - MEAN SEA LEVEL PRESSURE IN INCHES OF HG
  VSB    - VISIBILITY IN MILES
  HX     - HEAT INDEX
  WCI    - WIND CHILL INDEX
  VRB    - VARIABLE WIND DIRECTION
  N/A    - NOT AVAILABLE


USA.gov is the U.S. government's official web portal to all federal, state and local government web resources and services.